Temperature
6 6 7 7 7 8 8 8 8 9 9 9 9 10 10 10 10 9 10 10 9 9 9 9 10 10 10 10 10 10 10 10 10 9 9 9 8 8 8 8 7 7 6
6 6 6 7 7 7 8 8 8 8 9 9 9 9 10 9 10 9 10 10 9 9 9 9 10 10 10 10 10 10 10 10 10 9 9 9 8 8 8 7 7 6 6
5 6 6 6 6 7 7 7 8 8 9 9 9 9 9 9 10 10 10 9 10 10 10 9 10 10 10 10 10 9 9 9 9 9 9 8 8 8 7 7 6 6 6
5 5 5 6 6 6 7 7 8 8 8 9 9 9 9 9 9 10 9 9 9 9 9 9 10 10 10 10 9 9 9 9 9 9 8 8 7 7 7 6 6 6 5
4 5 5 5 5 6 6 7 7 8 8 8 8 9 9 9 9 9 9 9 9 9 9 9 10 10 10 10 9 9 9 9 9 8 8 8 7 7 7 6 6 5 5
4 4 5 5 5 6 6 7 7 7 8 8 8 9 9 9 9 9 9 9 9 9 9 9 9 9 9 9 9 9 9 9 9 8 8 8 7 7 6 6 5 5 4
4 4 4 5 5 6 6 6 7 7 7 8 8 8 9 9 9 9 9 9 9 9 9 9 9 9 9 9 9 9 9 9 8 8 8 8 7 7 6 5 5 4 4
4 4 4 4 5 5 6 6 6 7 7 7 8 8 9 9 9 9 9 9 9 9 9 9 9 9 9 9 9 8 8 8 8 8 7 7 7 6 5 5 4 4 3
3 3 4 4 4 5 5 5 6 6 7 7 7 8 8 9 9 9 9 9 9 9 9 9 9 9 9 9 9 8 8 8 7 7 7 6 6 5 5 4 4 3 3
3 3 3 3 4 4 5 5 6 6 6 7 7 7 8 8 8 9 9 9 8 8 8 9 9 9 9 9 8 8 8 8 7 6 6 6 5 5 4 4 3 3 2
2 3 3 3 4 4 5 5 5 5 6 6 7 7 7 8 8 8 8 8 8 8 8 8 8 8 8 8 8 8 8 7 7 6 6 5 5 4 4 3 3 2 2
2 2 3 3 3 4 4 5 5 5 5 6 6 6 7 7 8 8 8 8 8 8 8 8 8 8 8 8 8 7 7 7 6 6 5 5 4 4 3 3 2 2 1
2 2 2 3 3 4 4 4 4 5 5 5 5 6 6 7 7 8 8 8 8 8 8 8 8 8 7 7 7 7 6 6 6 5 5 4 4 3 3 2 2 1 1
1 2 2 2 3 3 4 4 4 4 4 5 5 5 6 6 7 7 7 7 8 8 7 7 7 7 7 6 6 6 5 5 5 5 4 4 3 3 2 2 2 1 1
1 1 1 2 2 3 3 4 4 4 4 4 5 5 5 6 7 7 7 7 7 7 7 7 6 6 6 5 5 5 5 5 4 4 4 3 3 2 2 2 1 1 0
1 1 1 1 2 2 3 3 3 4 4 4 5 5 6 6 6 7 7 7 7 7 7 6 6 6 5 5 5 5 5 4 4 4 3 3 3 2 2 1 1 0 -0
0 0 1 1 1 2 2 2 3 3 4 4 5 5 6 6 6 6 6 7 7 7 6 6 6 5 5 5 5 5 4 4 4 3 3 3 2 2 1 1 0 -0 -1
-0 0 0 1 1 1 2 2 2 3 3 4 4 5 5 5 6 6 6 6 6 6 6 6 6 5 5 5 5 4 4 4 3 3 3 2 2 1 1 1 -0 -1 -1
-0 -0 -0 0 0 1 1 2 2 2 3 3 4 4 5 5 5 5 6 6 6 6 6 6 6 5 5 5 5 4 4 3 3 3 2 2 2 1 1 0 -0 -1 -2
-1 -1 -0 -0 0 1 1 1 2 2 2 3 3 4 4 5 5 5 5 5 5 5 5 5 5 5 5 4 4 4 3 3 3 2 2 2 1 1 0 -0 -1 -1 -2
-1 -1 -1 -0 -0 0 1 1 2 2 2 3 3 3 4 4 5 5 5 5 5 5 5 5 5 5 4 4 4 3 3 3 2 2 2 1 1 0 -0 -1 -1 -2 -2
-1 -1 -1 -0 -0 0 1 1 2 2 2 2 3 3 3 4 4 4 4 5 5 5 5 5 5 4 4 4 4 3 3 3 2 2 1 1 0 -0 -0 -1 -2 -2 -3
-1 -1 -1 -1 -0 0 1 1 1 2 2 2 2 3 3 3 4 4 4 4 4 4 4 4 4 4 4 3 3 3 3 3 2 2 1 1 0 -0 -1 -1 -2 -2 -3
-1 -1 -1 -1 -0 -0 0 1 1 1 2 2 2 2 3 3 3 3 3 4 4 4 4 4 4 4 4 3 3 3 2 2 2 1 1 1 0 -0 -1 -1 -2 -2 -3
-2 -1 -1 -1 -0 -0 0 0 1 1 1 2 2 2 2 3 3 3 3 3 3 3 3 3 3 3 3 3 3 2 2 2 1 1 1 0 -0 -0 -1 -2 -2 -3 -3
-2 -1 -1 -1 -1 -0 -0 0 1 1 1 1 2 2 2 2 3 3 3 3 3 3 3 3 3 3 3 3 2 2 2 1 1 1 0 0 -0 -1 -1 -2 -2 -3 -4
Wind_Speed
5 5 5 5 5 6 7 9 9 9 12 14 14 15 15 16 16 15 14 16 16 14 12 12 11 9 8 7 7 6 5 4 4 2 2 2 3 4 4 5 5 4 3
6 6 5 5 5 5 6 8 9 10 11 12 14 15 16 16 16 17 17 17 17 16 15 13 12 10 10 9 8 7 6 5 5 5 2 2 3 4 4 3 3 3 2
6 6 6 5 5 6 6 7 8 10 11 11 13 15 16 16 16 16 16 16 16 16 15 14 13 13 12 8 8 8 6 5 4 5 4 2 2 2 3 2 2 1 0
6 6 6 6 6 7 7 7 7 9 10 11 13 14 14 14 15 15 15 15 15 14 13 13 13 14 13 12 9 9 7 6 5 5 4 3 2 2 3 2 1 0 1
7 6 6 6 7 6 6 6 6 7 9 11 11 12 13 12 13 14 15 15 15 14 12 12 12 13 14 13 10 10 10 7 6 5 4 3 3 3 3 3 2 1 1
6 7 7 6 6 5 5 4 5 5 7 9 10 12 13 12 15 17 16 15 15 14 13 12 11 12 14 15 15 14 13 11 9 7 5 5 5 4 3 3 3 2 1
7 7 7 6 5 5 3 3 4 4 5 7 9 11 12 13 17 19 18 15 14 14 14 13 10 10 12 11 12 12 11 11 12 9 8 7 6 6 6 4 3 2 2
7 7 7 7 6 4 3 2 3 4 4 5 7 9 10 12 17 19 18 15 13 14 14 14 13 12 12 13 12 10 7 6 7 6 7 7 6 7 7 6 5 3 2
7 7 6 6 6 5 4 3 2 3 4 4 6 7 10 11 15 19 18 13 12 13 13 13 14 13 17 18 14 12 9 6 7 10 10 9 10 11 10 7 5 3 1
8 7 6 6 6 5 5 3 2 2 4 4 4 6 8 10 13 17 19 12 12 11 10 12 15 16 19 20 15 14 12 9 9 9 9 9 8 9 9 6 6 4 2
7 7 6 5 5 5 4 3 1 1 2 3 3 4 6 9 12 16 19 13 12 12 11 10 10 18 20 20 16 12 14 13 10 10 8 6 6 5 4 4 3 3 3
6 6 6 6 5 5 4 3 1 2 2 3 3 2 3 6 9 13 17 16 14 12 11 10 11 19 19 18 14 15 19 16 9 8 7 6 5 4 3 4 5 5 4
6 6 6 6 5 4 4 3 1 2 2 3 3 3 3 3 6 12 16 17 16 11 10 14 17 20 18 14 16 20 17 11 9 8 7 5 4 5 5 5 6 7 7
6 6 5 5 6 5 4 3 2 3 3 3 4 4 4 4 5 7 10 12 14 12 11 15 19 18 14 14 15 13 8 8 8 8 7 6 5 5 4 4 3 3 3
6 5 5 5 5 4 4 3 3 4 5 5 4 5 6 6 7 10 11 10 10 12 13 10 9 10 9 8 8 8 8 8 7 7 8 7 6 5 4 3 3 2 2
5 5 4 4 4 3 3 3 3 4 4 5 6 6 5 7 9 11 13 15 17 20 15 11 11 10 10 10 10 9 7 8 8 8 8 7 7 6 5 3 3 2 2
5 5 4 4 4 4 3 2 2 3 2 3 4 5 7 8 11 13 15 18 19 20 11 11 11 11 10 10 9 9 7 7 8 8 8 8 7 6 6 5 4 3 2
5 6 5 4 4 4 3 3 2 2 1 1 1 4 7 9 12 14 16 15 12 11 9 11 11 10 10 10 9 9 9 8 8 8 8 7 7 7 6 5 4 4 3
5 4 4 4 4 4 3 3 2 3 2 2 0 2 6 10 12 14 15 10 11 10 9 10 10 10 10 10 9 9 10 9 9 8 8 8 7 7 6 5 4 5 3
5 7 6 4 4 4 3 3 2 3 3 3 3 3 4 6 7 8 8 8 9 9 10 10 10 10 10 10 10 10 9 9 9 8 7 7 7 6 7 6 5 5 3
4 5 6 5 4 4 3 3 3 3 3 3 3 4 5 6 8 8 8 8 8 9 10 10 10 11 10 10 10 10 11 9 9 8 8 7 7 6 6 5 5 4 4
4 4 4 4 4 4 4 3 3 4 4 3 3 3 6 5 6 7 7 7 7 8 9 10 10 10 10 11 11 11 11 10 10 9 8 8 7 7 6 6 5 5 4
4 4 4 4 3 4 3 3 3 4 4 4 4 4 4 4 5 6 7 7 8 8 9 9 10 9 9 9 10 11 12 11 11 11 10 9 8 7 7 7 7 6 4
4 4 4 4 3 3 3 3 3 4 4 4 4 4 5 5 5 6 7 8 8 8 9 9 10 12 13 11 10 9 10 12 13 12 13 11 9 8 7 7 6 6 5
4 4 4 4 3 3 3 3 3 4 4 5 5 5 5 6 6 6 7 8 9 9 10 10 10 12 14 14 13 12 16 19 17 15 12 10 10 9 8 8 6 6 5
4 4 3 3 3 3 4 4 4 5 5 5 5 5 6 6 7 7 7 8 9 9 10 9 11 13 15 14 15 19 21 21 20 19 14 10 10 9 8 7 8 6 6
Wind_Direction
301 296 293 281 259 231 217 214 218 210 199 194 193 190 187 185 184 186 185 181 183 185 186 186 186 176 174 172 169 167 164 152 168 165 138 138 149 155 146 154 169 180 198
305 299 298 285 274 255 235 224 218 211 203 198 192 190 188 186 185 187 187 185 185 187 187 186 185 179 176 174 174 174 172 160 158 164 150 141 145 157 148 145 146 166 190
309 300 300 296 279 273 254 239 224 212 202 194 192 191 190 188 187 188 189 187 188 188 186 186 184 179 180 175 173 174 171 158 143 148 150 133 122 130 129 122 119 101 157
312 305 294 292 282 273 256 242 229 209 195 195 195 191 190 190 189 187 187 187 186 185 185 186 183 184 183 176 176 174 164 154 142 139 137 134 125 120 131 147 149 89 351
314 312 296 289 287 279 264 242 216 202 199 196 193 191 191 192 190 186 186 184 182 181 182 185 184 181 180 177 176 174 167 162 155 149 146 140 150 155 178 165 164 138 347
310 310 309 302 295 288 272 233 206 207 203 197 194 193 194 198 188 183 184 182 181 180 182 181 180 177 175 172 168 167 166 166 169 166 167 172 181 176 153 149 142 141 238
311 316 318 315 313 304 281 232 207 205 207 201 198 196 198 195 185 181 181 180 180 182 181 178 177 177 169 168 159 152 156 159 163 167 170 182 175 175 159 153 161 161 187
315 319 323 327 326 322 308 256 216 206 209 203 198 200 196 193 183 179 176 179 179 181 180 177 174 172 171 161 152 148 145 145 153 153 164 169 160 157 160 157 149 121 94
320 319 320 321 321 322 314 299 244 215 215 211 203 198 192 191 182 178 173 178 179 180 178 174 172 173 167 156 153 150 141 129 118 122 121 124 129 136 134 122 126 120 141
311 307 307 312 312 310 306 287 274 232 222 218 215 201 191 188 181 179 175 179 178 176 171 172 172 170 165 160 161 158 157 151 136 120 109 105 106 121 130 136 152 145 143
301 304 306 309 304 298 301 293 256 239 223 217 211 201 192 188 178 177 177 181 177 172 171 172 173 164 162 163 162 164 159 147 140 132 125 116 107 102 96 94 109 139 152
299 303 305 305 302 306 306 300 243 197 217 218 200 189 192 186 181 178 176 175 170 172 172 169 165 159 159 159 158 149 142 137 137 135 135 135 132 123 107 91 85 79 92
300 300 302 307 305 301 295 283 235 200 203 222 202 193 194 187 179 173 171 167 161 163 160 155 152 153 152 153 148 143 142 143 145 147 150 150 143 135 120 101 84 79 71
296 298 300 306 307 304 294 267 225 218 214 215 208 199 193 189 180 172 169 162 154 150 144 142 140 139 139 140 142 142 144 150 150 150 144 136 129 130 127 122 113 98 75
295 295 299 297 296 302 305 290 251 244 229 221 216 204 192 196 189 172 166 163 161 153 141 135 135 141 142 140 139 141 142 142 138 134 137 137 137 135 131 125 119 105 101
295 295 293 293 291 290 302 317 302 252 263 249 236 223 208 192 175 163 160 154 150 146 141 146 149 151 154 154 153 150 149 150 147 143 144 146 148 147 140 131 119 113 119
287 289 286 284 282 283 282 281 306 329 310 250 216 206 195 177 168 161 155 151 151 149 146 153 156 158 157 157 156 155 153 150 146 147 149 150 149 147 146 146 140 123 118
288 285 282 274 273 272 267 259 246 233 264 303 201 171 172 166 161 157 153 146 154 156 155 157 158 159 157 157 156 152 146 145 146 148 149 149 148 149 151 153 152 144 139
287 283 280 277 272 265 256 248 236 209 201 223 225 147 153 154 154 156 156 159 161 161 157 156 155 156 156 155 154 151 150 150 151 151 150 150 150 150 151 150 147 144 133
285 280 279 275 270 263 249 235 222 202 197 200 194 169 151 148 154 160 162 160 160 159 156 155 153 153 153 152 151 150 148 148 149 149 150 150 150 152 151 148 147 149 150
280 279 278 272 259 251 237 227 218 208 205 197 196 184 173 164 164 165 166 162 161 158 156 155 153 153 152 151 152 151 150 151 152 150 149 149 148 146 142 141 141 139 138
272 270 268 257 251 243 230 218 209 198 186 185 178 169 165 156 155 159 159 156 154 153 153 153 154 156 158 158 157 155 153 153 153 150 148 146 144 141 139 137 136 137 138
267 265 266 261 252 243 239 212 191 182 179 176 171 164 158 151 148 152 152 150 147 147 146 148 148 149 147 150 155 157 158 160 159 155 150 146 145 145 144 143 144 143 146
268 263 259 254 243 227 212 203 188 173 165 162 164 162 155 148 145 143 145 144 144 144 144 145 148 149 146 145 145 145 145 146 146 148 146 145 144 143 141 140 141 145 147
272 266 256 244 233 213 197 189 177 167 160 158 158 155 148 142 140 142 142 140 139 138 138 137 140 143 144 143 141 141 143 142 140 140 139 138 139 138 139 139 141 141 140
274 262 249 240 226 201 188 180 170 163 159 157 154 152 148 144 142 142 140 139 138 137 135 133 136 137 138 137 137 138 140 139 139 138 135 134 136 137 138 138 137 137 136
Height
1365 1363 1362 1362 1363 1365 1365 1368 1369 1372 1376 1379 1384 1389 1394 1400 1407 1414 1419 1424 1429 1436 1442 1447 1452 1457 1462 1466 1470 1473 1477 1480 1481 1484 1486 1488 1489 1490 1491 1491 1491 1491 1490
1362 1360 1359 1359 1359 1359 1360 1362 1364 1367 1371 1375 1379 1384 1389 1395 1401 1408 1413 1419 1425 1431 1436 1442 1447 1453 1457 1462 1466 1469 1473 1476 1478 1480 1482 1483 1485 1486 1487 1487 1487 1487 1486
1360 1358 1356 1355 1355 1354 1355 1358 1360 1362 1365 1369 1374 1379 1385 1390 1396 1402 1408 1414 1420 1426 1431 1436 1442 1447 1452 1456 1461 1465 1468 1472 1474 1476 1478 1479 1481 1482 1483 1483 1484 1483 1482
1357 1355 1353 1352 1352 1351 1351 1353 1354 1357 1360 1365 1369 1375 1380 1386 1391 1398 1404 1410 1416 1421 1426 1432 1437 1442 1447 1451 1456 1460 1464 1467 1470 1472 1474 1475 1477 1478 1479 1479 1479 1479 1479
1355 1352 1350 1349 1349 1348 1348 1349 1350 1353 1357 1361 1365 1370 1376 1381 1387 1393 1399 1405 1410 1416 1421 1427 1432 1438 1443 1447 1452 1456 1459 1462 1465 1467 1469 1471 1472 1473 1474 1475 1475 1475 1475
1353 1351 1349 1347 1345 1345 1345 1346 1347 1350 1353 1357 1361 1365 1371 1377 1382 1388 1394 1399 1405 1411 1416 1422 1428 1433 1438 1443 1448 1451 1455 1458 1460 1463 1465 1466 1468 1469 1470 1471 1471 1471 1471
1351 1349 1347 1345 1343 1342 1342 1344 1345 1347 1349 1353 1357 1361 1366 1371 1377 1382 1389 1395 1400 1406 1411 1417 1422 1428 1433 1438 1443 1447 1450 1454 1457 1459 1461 1463 1464 1465 1466 1467 1468 1468 1467
1348 1347 1345 1342 1341 1341 1341 1342 1343 1345 1346 1349 1353 1356 1361 1366 1371 1378 1384 1390 1396 1401 1406 1412 1417 1423 1428 1433 1438 1442 1445 1449 1452 1455 1458 1459 1461 1462 1463 1464 1465 1465 1464
1347 1345 1343 1342 1340 1339 1339 1340 1340 1342 1344 1346 1349 1352 1356 1361 1367 1373 1380 1385 1391 1396 1402 1407 1413 1418 1423 1428 1433 1437 1441 1444 1448 1451 1454 1456 1458 1459 1460 1461 1461 1461 1460
1346 1344 1343 1341 1339 1338 1338 1338 1338 1339 1341 1343 1345 1348 1352 1356 1362 1368 1374 1380 1385 1391 1397 1403 1408 1413 1419 1423 1428 1432 1436 1439 1443 1446 1449 1452 1454 1455 1456 1457 1458 1458 1457
1344 1343 1341 1340 1338 1337 1336 1336 1337 1337 1339 1340 1342 1345 1349 1353 1358 1364 1369 1375 1380 1386 1391 1397 1403 1409 1414 1419 1424 1428 1432 1436 1439 1443 1445 1448 1450 1452 1453 1454 1455 1455 1455
1341 1339 1338 1337 1336 1335 1334 1334 1335 1336 1336 1338 1339 1342 1346 1350 1355 1359 1365 1371 1377 1382 1387 1393 1399 1405 1410 1415 1420 1424 1429 1432 1436 1439 1441 1444 1446 1448 1449 1451 1452 1452 1452
1338 1336 1334 1333 1333 1332 1331 1331 1332 1333 1335 1336 1338 1340 1344 1348 1352 1357 1362 1367 1373 1379 1384 1390 1395 1401 1406 1411 1416 1421 1425 1428 1431 1434 1437 1440 1443 1445 1446 1448 1449 1449 1449
1333 1332 1331 1330 1329 1329 1328 1329 1329 1331 1332 1334 1335 1338 1341 1344 1349 1353 1358 1364 1369 1375 1381 1387 1392 1397 1403 1408 1412 1417 1421 1425 1428 1431 1434 1437 1439 1441 1443 1445 1446 1446 1447
1330 1330 1328 1328 1327 1326 1326 1327 1328 1329 1330 1331 1333 1335 1338 1341 1345 1350 1354 1360 1365 1370 1376 1382 1387 1393 1398 1403 1408 1413 1417 1421 1425 1428 1431 1434 1436 1438 1440 1442 1443 1444 1444
1327 1326 1325 1324 1324 1324 1323 1324 1325 1326 1327 1329 1330 1332 1335 1339 1343 1348 1353 1358 1363 1368 1373 1378 1383 1389 1394 1399 1404 1409 1413 1418 1422 1425 1428 1431 1433 1436 1437 1439 1440 1441 1441
1323 1322 1322 1321 1321 1320 1320 1321 1321 1323 1324 1326 1328 1330 1333 1336 1340 1345 1350 1355 1360 1366 1370 1375 1380 1385 1391 1396 1400 1405 1410 1414 1418 1422 1425 1428 1431 1433 1435 1436 1437 1438 1438
1320 1319 1319 1318 1318 1317 1317 1318 1319 1320 1321 1322 1324 1327 1330 1334 1338 1343 1348 1353 1358 1363 1367 1372 1377 1382 1387 1392 1397 1402 1407 1411 1415 1419 1422 1425 1428 1430 1432 1433 1435 1435 1436
1316 1315 1315 1314 1314 1314 1315 1316 1317 1317 1318 1320 1321 1325 1328 1332 1336 1341 1346 1350 1354 1358 1364 1369 1374 1379 1384 1389 1394 1399 1404 1408 1412 1416 1419 1422 1425 1427 1429 1431 1432 1433 1434
1312 1312 1311 1311 1311 1311 1312 1312 1313 1315 1316 1318 1320 1322 1326 1329 1333 1338 1343 1347 1351 1356 1361 1367 1372 1377 1382 1387 1391 1396 1401 1405 1409 1413 1416 1419 1422 1424 1426 1428 1430 1431 1431
1308 1308 1308 1308 1308 1308 1309 1309 1310 1312 1314 1316 1318 1321 1324 1327 1331 1335 1340 1345 1349 1354 1359 1364 1369 1374 1379 1384 1389 1393 1398 1402 1406 1410 1413 1416 1419 1422 1424 1426 1428 1429 1430
1305 1304 1304 1304 1304 1305 1306 1307 1308 1310 1312 1314 1316 1320 1323 1326 1330 1334 1339 1343 1348 1353 1358 1363 1368 1372 1377 1382 1386 1391 1395 1399 1403 1407 1411 1414 1417 1419 1422 1424 1426 1427 1428
1301 1301 1300 1301 1301 1302 1303 1304 1306 1308 1310 1312 1314 1317 1321 1324 1328 1333 1337 1342 1346 1351 1356 1361 1366 1370 1375 1380 1385 1389 1393 1397 1401 1405 1408 1411 1414 1417 1420 1422 1424 1425 1426
1298 1297 1297 1297 1297 1298 1300 1301 1303 1306 1308 1311 1314 1316 1319 1323 1327 1331 1336 1340 1345 1349 1354 1359 1364 1369 1373 1378 1383 1387 1392 1396 1400 1403 1407 1410 1412 1415 1418 1420 1422 1424 1425
1294 1293 1293 1294 1294 1295 1297 1299 1301 1304 1306 1309 1312 1315 1319 1322 1326 1330 1334 1339 1343 1348 1352 1357 1362 1367 1372 1377 1381 1386 1390 1394 1398 1402 1405 1408 1411 1414 1417 1419 1421 1423 1424
1291 1290 1290 1290 1291 1292 1294 1296 1299 1302 1305 1308 1311 1314 1318 1321 1325 1329 1333 1338 1342 1346 1351 1356 1361 1366 1371 1376 1380 1385 1389 1393 1397 1401 1404 1407 1410 1413 1416 1418 1420 1422 1423